Time,TemperatureF,DewpointF,PressureIn,WindDirection,WindDirectionDegrees,WindSpeedMPH,WindSpeedGustMPH,Humidity,HourlyPrecipIn,Conditions,Clouds,dailyrainin,SoftwareType,DateUTC
2013-01-11 00:05:00,61.8,60.4,30.29,East,83,0.0,0.0,95,0.00,,,0.00,Wunderground v.1.15,2013-01-11 05:05:00,
2013-01-11 00:09:00,61.7,60.0,30.29,East,83,0.0,0.0,94,0.00,,,0.00,weatherlink.com 1.10,2013-01-11 05:09:00,
2013-01-11 00:10:00,61.6,59.9,30.29,East,83,0.0,0.0,94,0.00,,,0.00,Wunderground v.1.15,2013-01-11 05:10:00,
2013-01-11 00:15:00,61.5,60.1,30.29,East,83,0.0,0.0,95,0.00,,,0.00,Wunderground v.1.15,2013-01-11 05:15:00,
2013-01-11 00:20:00,61.4,60.0,30.29,East,83,0.0,0.0,95,0.00,,,0.00,Wunderground v.1.15,2013-01-11 05:20:00,
2013-01-11 00:26:00,61.2,60.0,30.28,East,83,0.0,0.0,95,0.00,,,0.00,weatherlink.com 1.10,2013-01-11 05:26:00,
2013-01-11 00:35:00,61.2,59.8,30.28,East,83,0.0,0.0,95,0.00,,,0.00,Wunderground v.1.15,2013-01-11 05:35:00,
2013-01-11 00:40:00,61.2,60.1,30.28,East,84,0.0,0.0,96,0.00,,,0.00,Wunderground v.1.15,2013-01-11 05:40:00,
2013-01-11 00:50:00,61.3,60.2,30.28,East,83,0.0,0.0,96,0.00,,,0.00,Wunderground v.1.15,2013-01-11 05:50:00,
2013-01-11 00:59:00,61.4,60.0,30.28,East,84,0.0,0.0,96,0.00,,,0.00,weatherlink.com 1.10,2013-01-11 05:59:00,
2013-01-11 01:05:00,61.4,60.2,30.28,East,84,0.0,0.0,96,0.00,,,0.00,Wunderground v.1.15,2013-01-11 06:05:00,
2013-01-11 01:10:00,61.4,60.2,30.27,East,84,0.0,0.0,96,0.00,,,0.00,Wunderground v.1.15,2013-01-11 06:10:00,
2013-01-11 01:15:00,61.5,60.0,30.27,East,83,0.0,0.0,96,0.00,,,0.00,weatherlink.com 1.10,2013-01-11 06:15:00,
2013-01-11 01:25:00,61.6,60.4,30.27,East,84,0.0,0.0,96,0.00,,,0.00,Wunderground v.1.15,2013-01-11 06:25:00,
2013-01-11 01:30:00,61.4,60.0,30.27,East,84,0.0,0.0,95,0.00,,,0.00,Wunderground v.1.15,2013-01-11 06:30:00,
2013-01-11 01:40:00,61.1,59.7,30.27,East,84,0.0,0.0,95,0.00,,,0.00,Wunderground v.1.15,2013-01-11 06:40:00,
2013-01-11 01:45:00,60.9,59.5,30.26,East,83,0.0,0.0,95,0.00,,,0.00,Wunderground v.1.15,2013-01-11 06:45:00,
2013-01-11 01:55:00,60.7,59.3,30.26,East,84,0.0,0.0,95,0.00,,,0.00,Wunderground v.1.15,2013-01-11 06:55:00,
2013-01-11 02:00:00,61.0,60.1,30.26,East,84,0.0,0.0,97,0.00,,,0.00,Wunderground v.1.15,2013-01-11 07:00:00,
2013-01-11 02:05:00,61.5,60.9,30.26,East,82,0.0,0.0,98,0.00,,,0.00,Wunderground v.1.15,2013-01-11 07:05:00,
2013-01-11 02:15:00,62.5,61.9,30.26,East,82,0.0,0.0,98,0.00,,,0.00,Wunderground v.1.15,2013-01-11 07:15:00,
2013-01-11 02:20:00,63.2,62.6,30.26,East,93,0.0,0.0,98,0.00,,,0.00,Wunderground v.1.15,2013-01-11 07:20:00,
2013-01-11 02:30:00,63.6,63.0,30.25,East,93,0.0,0.0,98,0.00,,,0.00,Wunderground v.1.15,2013-01-11 07:30:00,
2013-01-11 02:38:00,63.5,63.0,30.25,East,92,0.0,1.0,97,0.00,,,0.00,weatherlink.com 1.10,2013-01-11 07:38:00,
2013-01-11 02:45:00,63.1,61.9,30.26,East,92,0.0,0.0,96,0.00,,,0.00,Wunderground v.1.15,2013-01-11 07:45:00,
2013-01-11 02:50:00,62.6,61.1,30.26,East,91,0.0,0.0,95,0.00,,,0.00,Wunderground v.1.15,2013-01-11 07:50:00,
2013-01-11 02:55:00,62.3,61.1,30.26,East,92,0.0,0.0,96,0.00,,,0.00,Wunderground v.1.15,2013-01-11 07:55:00,
2013-01-11 03:05:00,61.9,60.7,30.26,East,92,0.0,0.0,96,0.00,,,0.00,Wunderground v.1.15,2013-01-11 08:05:00,
2013-01-11 03:10:00,61.8,60.6,30.26,East,92,0.0,0.0,96,0.00,,,0.00,Wunderground v.1.15,2013-01-11 08:10:00,
2013-01-11 03:15:00,61.8,60.9,30.26,East,92,0.0,0.0,97,0.00,,,0.00,Wunderground v.1.15,2013-01-11 08:15:00,
2013-01-11 03:25:00,61.9,61.0,30.26,East,92,0.0,0.0,97,0.00,,,0.00,Wunderground v.1.15,2013-01-11 08:25:00,
2013-01-11 03:30:00,61.8,60.9,30.26,East,91,0.0,0.0,97,0.00,,,0.00,Wunderground v.1.15,2013-01-11 08:30:00,
2013-01-11 03:35:00,61.7,60.8,30.26,East,92,0.0,0.0,97,0.00,,,0.00,Wunderground v.1.15,2013-01-11 08:35:00,
2013-01-11 03:40:00,61.7,60.8,30.26,East,92,0.0,0.0,97,0.00,,,0.00,Wunderground v.1.15,2013-01-11 08:40:00,
2013-01-11 03:50:00,61.5,60.6,30.25,East,92,0.0,0.0,97,0.00,,,0.00,Wunderground v.1.15,2013-01-11 08:50:00,
2013-01-11 03:55:00,61.4,60.5,30.25,East,92,0.0,0.0,97,0.00,,,0.00,Wunderground v.1.15,2013-01-11 08:55:00,
2013-01-11 04:00:00,61.4,60.5,30.25,East,91,0.0,0.0,97,0.00,,,0.00,Wunderground v.1.15,2013-01-11 09:00:00,
2013-01-11 04:10:00,61.2,60.3,30.25,East,92,0.0,0.0,97,0.00,,,0.00,Wunderground v.1.15,2013-01-11 09:10:00,
2013-01-11 04:15:00,61.2,60.6,30.24,East,92,0.0,0.0,98,0.00,,,0.00,Wunderground v.1.15,2013-01-11 09:15:00,
2013-01-11 04:20:00,61.3,60.7,30.24,East,92,0.0,0.0,98,0.00,,,0.00,Wunderground v.1.15,2013-01-11 09:20:00,
2013-01-11 04:30:00,60.8,59.9,30.24,East,92,0.0,0.0,97,0.00,,,0.00,Wunderground v.1.15,2013-01-11 09:30:00,
2013-01-11 04:35:00,60.7,59.8,30.24,East,92,0.0,0.0,97,0.00,,,0.00,Wunderground v.1.15,2013-01-11 09:35:00,
2013-01-11 04:45:00,60.8,59.9,30.23,East,92,0.0,0.0,97,0.00,,,0.00,Wunderground v.1.15,2013-01-11 09:45:00,
2013-01-11 04:50:00,60.7,59.8,30.23,East,92,0.0,0.0,97,0.00,,,0.00,Wunderground v.1.15,2013-01-11 09:50:00,
2013-01-11 04:55:00,60.7,59.8,30.23,East,91,0.0,0.0,97,0.00,,,0.00,Wunderground v.1.15,2013-01-11 09:55:00,
2013-01-11 05:00:00,60.5,59.6,30.23,East,92,0.0,0.0,97,0.00,,,0.00,Wunderground v.1.15,2013-01-11 10:00:00,
2013-01-11 05:06:00,60.5,60.0,30.23,East,92,0.0,0.0,97,0.00,,,0.00,weatherlink.com 1.10,2013-01-11 10:06:00,
2013-01-11 05:15:00,60.7,60.1,30.23,East,92,0.0,0.0,98,0.00,,,0.00,Wunderground v.1.15,2013-01-11 10:15:00,
2013-01-11 05:22:00,61.3,61.0,30.23,East,92,0.0,0.0,99,0.00,,,0.00,weatherlink.com 1.10,2013-01-11 10:22:00,
2013-01-11 05:30:00,61.5,60.9,30.24,East,92,0.0,0.0,98,0.00,,,0.00,Wunderground v.1.15,2013-01-11 10:30:00,
2013-01-11 05:35:00,62.2,61.9,30.23,East,88,0.0,0.0,99,0.00,,,0.00,Wunderground v.1.15,2013-01-11 10:35:00,
2013-01-11 05:45:00,62.8,62.5,30.23,East,88,0.0,0.0,99,0.00,,,0.00,Wunderground v.1.15,2013-01-11 10:45:00,
2013-01-11 05:50:00,62.9,62.3,30.23,East,88,0.0,0.0,98,0.00,,,0.00,Wunderground v.1.15,2013-01-11 10:50:00,
2013-01-11 05:55:00,62.9,62.3,30.23,East,88,0.0,0.0,98,0.00,,,0.00,Wunderground v.1.15,2013-01-11 10:55:00,
2013-01-11 06:00:00,63.0,62.4,30.23,East,88,0.0,0.0,98,0.00,,,0.00,Wunderground v.1.15,2013-01-11 11:00:00,
2013-01-11 06:10:00,63.3,62.7,30.23,East,88,0.0,0.0,98,0.00,,,0.00,Wunderground v.1.15,2013-01-11 11:10:00,
2013-01-11 06:15:00,63.4,62.8,30.23,East,88,0.0,0.0,98,0.00,,,0.00,Wunderground v.1.15,2013-01-11 11:15:00,
2013-01-11 06:25:00,63.4,62.8,30.24,East,88,0.0,0.0,98,0.00,,,0.00,Wunderground v.1.15,2013-01-11 11:25:00,
2013-01-11 06:30:00,63.5,62.9,30.24,ENE,70,0.0,0.0,98,0.00,,,0.00,Wunderground v.1.15,2013-01-11 11:30:00,
2013-01-11 06:35:00,63.8,63.2,30.25,ENE,70,0.0,0.0,98,0.00,,,0.00,Wunderground v.1.15,2013-01-11 11:35:00,
2013-01-11 06:45:00,63.9,63.3,30.25,ENE,70,0.0,0.0,98,0.00,,,0.00,Wunderground v.1.15,2013-01-11 11:45:00,
2013-01-11 06:50:00,64.0,63.4,30.25,ENE,70,0.0,0.0,98,0.00,,,0.00,Wunderground v.1.15,2013-01-11 11:50:00,
2013-01-11 06:55:00,64.2,63.6,30.25,ENE,70,0.0,0.0,98,0.00,,,0.00,Wunderground v.1.15,2013-01-11 11:55:00,
2013-01-11 07:02:00,64.3,64.0,30.25,ENE,70,0.0,0.0,98,0.00,,,0.00,weatherlink.com 1.10,2013-01-11 12:02:00,
2013-01-11 07:10:00,64.3,63.7,30.25,ENE,58,0.0,0.0,98,0.00,,,0.00,Wunderground v.1.15,2013-01-11 12:10:00,
2013-01-11 07:15:00,64.3,63.7,30.25,ENE,58,0.0,0.0,98,0.00,,,0.00,Wunderground v.1.15,2013-01-11 12:15:00,
2013-01-11 07:25:00,64.3,63.7,30.25,ENE,58,0.0,0.0,98,0.00,,,0.00,Wunderground v.1.15,2013-01-11 12:25:00,
2013-01-11 07:30:00,64.4,63.8,30.25,ENE,58,0.0,0.0,98,0.00,,,0.00,Wunderground v.1.15,2013-01-11 12:30:00,
2013-01-11 07:35:00,64.3,63.7,30.25,ENE,58,0.0,0.0,98,0.00,,,0.00,Wunderground v.1.15,2013-01-11 12:35:00,
2013-01-11 07:40:00,64.3,63.7,30.25,ENE,58,0.0,0.0,98,0.00,,,0.00,Wunderground v.1.15,2013-01-11 12:40:00,
2013-01-11 07:50:00,64.1,63.5,30.26,ENE,58,0.0,0.0,98,0.00,,,0.00,Wunderground v.1.15,2013-01-11 12:50:00,
2013-01-11 07:55:00,64.2,63.6,30.26,ENE,58,0.0,0.0,98,0.00,,,0.00,Wunderground v.1.15,2013-01-11 12:55:00,
2013-01-11 08:00:00,65.0,64.7,30.26,ENE,58,0.0,0.0,99,0.00,,,0.00,Wunderground v.1.15,2013-01-11 13:00:00,
2013-01-11 08:05:00,65.4,65.1,30.26,ENE,58,0.0,0.0,99,0.00,,,0.00,Wunderground v.1.15,2013-01-11 13:05:00,
2013-01-11 08:15:00,65.7,65.1,30.26,ENE,58,0.0,0.0,98,0.00,,,0.00,Wunderground v.1.15,2013-01-11 13:15:00,
2013-01-11 08:20:00,66.0,65.4,30.26,ENE,58,0.0,0.0,98,0.00,,,0.00,Wunderground v.1.15,2013-01-11 13:20:00,
2013-01-11 08:25:00,66.2,65.3,30.27,ENE,58,0.0,0.0,97,0.00,,,0.00,Wunderground v.1.15,2013-01-11 13:25:00,
2013-01-11 08:35:00,66.6,65.7,30.27,ENE,58,0.0,0.0,97,0.00,,,0.00,Wunderground v.1.15,2013-01-11 13:35:00,
2013-01-11 08:40:00,66.8,65.9,30.28,NNE,30,0.0,0.0,97,0.00,,,0.00,Wunderground v.1.15,2013-01-11 13:40:00,
2013-01-11 08:50:00,67.5,66.6,30.28,NNE,30,0.0,0.0,97,0.00,,,0.00,Wunderground v.1.15,2013-01-11 13:50:00,
2013-01-11 08:55:00,68.0,67.1,30.28,NE,42,0.0,0.0,97,0.00,,,0.00,Wunderground v.1.15,2013-01-11 13:55:00,
2013-01-11 09:00:00,68.4,67.5,30.28,NE,42,0.0,0.0,97,0.00,,,0.00,Wunderground v.1.15,2013-01-11 14:00:00,
2013-01-11 09:10:00,69.0,67.5,30.28,NE,37,0.0,1.0,95,0.00,,,0.00,Wunderground v.1.15,2013-01-11 14:10:00,
2013-01-11 09:15:00,69.0,67.5,30.28,NE,39,0.0,1.0,95,0.00,,,0.00,Wunderground v.1.15,2013-01-11 14:15:00,
2013-01-11 09:20:00,69.2,67.7,30.28,NE,38,0.0,0.0,95,0.00,,,0.00,Wunderground v.1.15,2013-01-11 14:20:00,
2013-01-11 09:29:00,69.6,68.0,30.29,NE,38,0.0,1.0,95,0.00,,,0.00,weatherlink.com 1.10,2013-01-11 14:29:00,
2013-01-11 09:35:00,69.7,68.2,30.29,NE,38,0.0,1.0,95,0.00,,,0.00,Wunderground v.1.15,2013-01-11 14:35:00,
2013-01-11 09:40:00,69.9,68.4,30.29,NE,39,0.0,0.0,95,0.00,,,0.00,Wunderground v.1.15,2013-01-11 14:40:00,
2013-01-11 09:46:00,70.7,69.0,30.29,NE,37,1.0,1.0,93,0.00,,,0.00,weatherlink.com 1.10,2013-01-11 14:46:00,
2013-01-11 09:55:00,71.6,69.5,30.29,NE,40,0.0,0.0,93,0.00,,,0.00,Wunderground v.1.15,2013-01-11 14:55:00,
2013-01-11 10:03:00,73.0,70.0,30.29,NNW,343,1.0,2.0,90,0.00,,,0.00,weatherlink.com 1.10,2013-01-11 15:03:00,
2013-01-11 10:10:00,73.6,69.8,30.29,ENE,77,1.0,2.0,88,0.00,,,0.00,Wunderground v.1.15,2013-01-11 15:10:00,
2013-01-11 10:19:00,74.3,71.0,30.28,East,88,0.0,2.0,88,0.00,,,0.00,weatherlink.com 1.10,2013-01-11 15:19:00,
2013-01-11 10:25:00,75.6,70.4,30.28,NNE,23,0.0,1.0,84,0.00,,,0.00,Wunderground v.1.15,2013-01-11 15:25:00,
2013-01-11 10:30:00,75.5,70.0,30.28,ENE,74,1.0,1.0,83,0.00,,,0.00,Wunderground v.1.15,2013-01-11 15:30:00,
2013-01-11 10:35:00,75.8,70.3,30.28,ESE,105,1.0,2.0,83,0.00,,,0.00,Wunderground v.1.15,2013-01-11 15:35:00,
2013-01-11 10:45:00,75.8,69.9,30.28,East,91,2.0,2.0,82,0.00,,,0.00,Wunderground v.1.15,2013-01-11 15:45:00,
2013-01-11 10:50:00,76.1,70.2,30.28,East,94,2.0,2.0,82,0.00,,,0.00,Wunderground v.1.15,2013-01-11 15:50:00,
2013-01-11 11:00:00,76.4,70.1,30.27,ESE,110,2.0,4.0,81,0.00,,,0.00,Wunderground v.1.15,2013-01-11 16:00:00,
2013-01-11 11:05:00,76.2,69.9,30.27,ESE,104,3.0,4.0,81,0.00,,,0.00,Wunderground v.1.15,2013-01-11 16:05:00,
2013-01-11 11:10:00,76.5,70.2,30.26,ESE,105,2.0,3.0,81,0.00,,,0.00,Wunderground v.1.15,2013-01-11 16:10:00,
2013-01-11 11:20:00,76.6,69.6,30.25,ESE,108,2.0,3.0,79,0.00,,,0.00,Wunderground v.1.15,2013-01-11 16:20:00,
2013-01-11 11:25:00,78.0,70.6,30.25,East,99,2.0,3.0,78,0.00,,,0.00,Wunderground v.1.15,2013-01-11 16:25:00,
2013-01-11 11:30:00,77.9,69.3,30.25,ESE,108,2.0,2.0,75,0.00,,,0.00,Wunderground v.1.15,2013-01-11 16:30:00,
2013-01-11 11:40:00,78.6,70.0,30.25,East,93,0.0,2.0,75,0.00,,,0.00,Wunderground v.1.15,2013-01-11 16:40:00,
2013-01-11 11:45:00,79.4,69.6,30.25,East,100,1.0,4.0,72,0.00,,,0.00,Wunderground v.1.15,2013-01-11 16:45:00,
2013-01-11 11:50:00,79.6,69.4,30.24,ENE,74,2.0,4.0,71,0.00,,,0.00,Wunderground v.1.15,2013-01-11 16:50:00,
2013-01-11 11:58:00,79.5,69.0,30.23,East,79,1.0,7.0,71,0.00,,,0.00,weatherlink.com 1.10,2013-01-11 16:58:00,
2013-01-11 12:05:00,80.4,67.1,30.23,ESE,121,3.0,4.0,64,0.00,,,0.00,Wunderground v.1.15,2013-01-11 17:05:00,
2013-01-11 12:10:00,80.9,67.6,30.23,East,84,3.0,4.0,64,0.00,,,0.00,Wunderground v.1.15,2013-01-11 17:10:00,
2013-01-11 12:15:00,80.4,70.1,30.23,East,82,2.0,2.0,71,0.00,,,0.00,Wunderground v.1.15,2013-01-11 17:15:00,
2013-01-11 12:20:00,80.5,69.0,30.22,East,98,2.0,2.0,68,0.00,,,0.00,Wunderground v.1.15,2013-01-11 17:20:00,
2013-01-11 12:25:00,80.5,69.4,30.22,NE,44,2.0,2.0,69,0.00,,,0.00,Wunderground v.1.15,2013-01-11 17:25:00,
2013-01-11 12:32:00,80.7,70.0,30.22,East,95,5.0,5.0,69,0.00,,,0.00,weatherlink.com 1.10,2013-01-11 17:32:00,
2013-01-11 12:40:00,79.7,70.3,30.21,NNE,32,2.0,2.0,73,0.00,,,0.00,Wunderground v.1.15,2013-01-11 17:40:00,
2013-01-11 12:48:00,80.9,70.0,30.21,NNW,348,1.0,6.0,69,0.00,,,0.00,weatherlink.com 1.10,2013-01-11 17:48:00,
2013-01-11 12:55:00,82.1,69.2,30.20,NNE,19,1.0,2.0,65,0.00,,,0.00,Wunderground v.1.15,2013-01-11 17:55:00,
2013-01-11 13:05:00,82.1,68.7,30.20,ESE,105,3.0,4.0,64,0.00,,,0.00,Wunderground v.1.15,2013-01-11 18:05:00,
2013-01-11 13:10:00,81.2,68.8,30.20,South,186,4.0,6.0,66,0.00,,,0.00,Wunderground v.1.15,2013-01-11 18:10:00,
2013-01-11 13:15:00,81.2,68.3,30.20,ESE,109,4.0,6.0,65,0.00,,,0.00,Wunderground v.1.15,2013-01-11 18:15:00,
2013-01-11 13:22:00,80.8,68.0,30.20,ESE,111,5.0,7.0,65,0.00,,,0.00,weatherlink.com 1.10,2013-01-11 18:22:00,
2013-01-11 13:30:00,81.6,68.2,30.19,East,96,3.0,3.0,64,0.00,,,0.00,Wunderground v.1.15,2013-01-11 18:30:00,
2013-01-11 13:35:00,81.4,68.1,30.18,SE,133,3.0,3.0,64,0.00,,,0.00,Wunderground v.1.15,2013-01-11 18:35:00,
2013-01-11 13:45:00,80.5,68.5,30.19,ESE,112,4.0,4.0,67,0.00,,,0.00,Wunderground v.1.15,2013-01-11 18:45:00,
2013-01-11 13:50:00,80.3,67.5,30.19,SE,134,4.0,5.0,65,0.00,,,0.00,Wunderground v.1.15,2013-01-11 18:50:00,
2013-01-11 13:55:00,79.6,68.1,30.18,East,98,3.0,5.0,68,0.00,,,0.00,Wunderground v.1.15,2013-01-11 18:55:00,
2013-01-11 14:05:00,79.4,67.9,30.18,ESE,106,3.0,4.0,68,0.00,,,0.00,Wunderground v.1.15,2013-01-11 19:05:00,
2013-01-11 14:10:00,79.9,68.4,30.18,ENE,72,3.0,3.0,68,0.00,,,0.00,Wunderground v.1.15,2013-01-11 19:10:00,
2013-01-11 14:15:00,80.1,68.2,30.18,ESE,108,2.0,3.0,67,0.00,,,0.00,Wunderground v.1.15,2013-01-11 19:15:00,
2013-01-11 14:25:00,79.9,68.0,30.18,SE,124,3.0,4.0,67,0.00,,,0.00,Wunderground v.1.15,2013-01-11 19:25:00,
2013-01-11 14:30:00,79.9,68.4,30.17,East,82,2.0,2.0,68,0.00,,,0.00,Wunderground v.1.15,2013-01-11 19:30:00,
2013-01-11 14:35:00,80.1,68.2,30.17,ESE,103,2.0,2.0,67,0.00,,,0.00,Wunderground v.1.15,2013-01-11 19:35:00,
2013-01-11 14:44:00,79.8,68.0,30.18,East,89,1.0,5.0,68,0.00,,,0.00,weatherlink.com 1.10,2013-01-11 19:44:00,
2013-01-11 14:50:00,79.9,68.8,30.18,NNE,29,2.0,2.0,69,0.00,,,0.00,Wunderground v.1.15,2013-01-11 19:50:00,
2013-01-11 14:55:00,79.8,68.3,30.17,ENE,75,1.0,2.0,68,0.00,,,0.00,Wunderground v.1.15,2013-01-11 19:55:00,
2013-01-11 15:01:00,79.8,67.0,30.18,ESE,113,4.0,6.0,66,0.00,,,0.00,weatherlink.com 1.10,2013-01-11 20:01:00,
2013-01-11 15:10:00,80.2,67.8,30.18,East,86,3.0,3.0,66,0.00,,,0.00,Wunderground v.1.15,2013-01-11 20:10:00,
2013-01-11 15:15:00,80.3,68.8,30.17,ESE,120,3.0,3.0,68,0.00,,,0.00,Wunderground v.1.15,2013-01-11 20:15:00,
2013-01-11 15:25:00,79.6,67.2,30.18,ESE,105,3.0,4.0,66,0.00,,,0.00,Wunderground v.1.15,2013-01-11 20:25:00,
2013-01-11 15:30:00,79.2,67.3,30.18,East,89,3.0,3.0,67,0.00,,,0.00,Wunderground v.1.15,2013-01-11 20:30:00,
2013-01-11 15:35:00,79.0,68.0,30.18,ESE,108,2.0,4.0,69,0.00,,,0.00,Wunderground v.1.15,2013-01-11 20:35:00,
2013-01-11 15:45:00,78.8,67.8,30.18,SE,134,4.0,4.0,69,0.00,,,0.00,Wunderground v.1.15,2013-01-11 20:45:00,
2013-01-11 15:50:00,78.5,67.5,30.18,East,96,4.0,4.0,69,0.00,,,0.00,Wunderground v.1.15,2013-01-11 20:50:00,
2013-01-11 15:55:00,78.3,66.9,30.18,ESE,113,3.0,4.0,68,0.00,,,0.00,Wunderground v.1.15,2013-01-11 20:55:00,
2013-01-11 16:00:00,78.2,66.8,30.18,ENE,75,3.0,3.0,68,0.00,,,0.00,Wunderground v.1.15,2013-01-11 21:00:00,
2013-01-11 16:06:00,78.1,67.0,30.18,ESE,102,3.0,6.0,69,0.00,,,0.00,weatherlink.com 1.10,2013-01-11 21:06:00,
2013-01-11 16:15:00,78.0,67.4,30.18,East,86,3.0,3.0,70,0.00,,,0.00,Wunderground v.1.15,2013-01-11 21:15:00,
2013-01-11 16:20:00,77.8,67.2,30.18,East,81,2.0,3.0,70,0.00,,,0.00,Wunderground v.1.15,2013-01-11 21:20:00,
2013-01-11 16:30:00,77.1,67.8,30.18,ENE,75,2.0,4.0,73,0.00,,,0.00,Wunderground v.1.15,2013-01-11 21:30:00,
2013-01-11 16:35:00,76.8,68.3,30.19,East,95,2.0,2.0,75,0.00,,,0.00,Wunderground v.1.15,2013-01-11 21:35:00,
2013-01-11 16:40:00,76.8,67.9,30.19,East,100,2.0,2.0,74,0.00,,,0.00,Wunderground v.1.15,2013-01-11 21:40:00,
2013-01-11 16:50:00,76.6,67.7,30.19,East,93,1.0,2.0,74,0.00,,,0.00,Wunderground v.1.15,2013-01-11 21:50:00,
2013-01-11 16:55:00,76.6,67.7,30.19,East,81,1.0,1.0,74,0.00,,,0.00,Wunderground v.1.15,2013-01-11 21:55:00,
2013-01-11 17:00:00,76.5,67.6,30.19,East,82,1.0,1.0,74,0.00,,,0.00,Wunderground v.1.15,2013-01-11 22:00:00,
2013-01-11 17:10:00,76.3,66.6,30.18,East,96,2.0,2.0,72,0.00,,,0.00,Wunderground v.1.15,2013-01-11 22:10:00,
2013-01-11 17:15:00,76.2,66.5,30.18,East,96,2.0,3.0,72,0.00,,,0.00,Wunderground v.1.15,2013-01-11 22:15:00,
2013-01-11 17:20:00,76.1,66.4,30.18,East,98,2.0,2.0,72,0.00,,,0.00,Wunderground v.1.15,2013-01-11 22:20:00,
2013-01-11 17:25:00,76.0,66.7,30.18,East,99,1.0,2.0,73,0.00,,,0.00,Wunderground v.1.15,2013-01-11 22:25:00,
2013-01-11 17:35:00,75.9,66.2,30.19,East,86,2.0,2.0,72,0.00,,,0.00,Wunderground v.1.15,2013-01-11 22:35:00,
2013-01-11 17:40:00,75.7,66.4,30.18,East,91,1.0,1.0,73,0.00,,,0.00,Wunderground v.1.15,2013-01-11 22:40:00,
2013-01-11 17:45:00,75.5,66.6,30.19,East,99,1.0,3.0,74,0.00,,,0.00,Wunderground v.1.15,2013-01-11 22:45:00,
2013-01-11 17:55:00,75.3,66.8,30.18,East,84,1.0,1.0,75,0.00,,,0.00,Wunderground v.1.15,2013-01-11 22:55:00,
2013-01-11 18:01:00,75.2,67.0,30.18,East,99,1.0,4.0,75,0.00,,,0.00,weatherlink.com 1.10,2013-01-11 23:01:00,
2013-01-11 18:10:00,75.0,66.9,30.18,East,98,1.0,1.0,76,0.00,,,0.00,Wunderground v.1.15,2013-01-11 23:10:00,
2013-01-11 18:15:00,74.8,67.1,30.19,East,86,1.0,1.0,77,0.00,,,0.00,Wunderground v.1.15,2013-01-11 23:15:00,
2013-01-11 18:20:00,74.7,67.4,30.19,East,95,1.0,1.0,78,0.00,,,0.00,Wunderground v.1.15,2013-01-11 23:20:00,
2013-01-11 18:30:00,74.5,67.6,30.19,East,99,1.0,1.0,79,0.00,,,0.00,Wunderground v.1.15,2013-01-11 23:30:00,
2013-01-11 18:35:00,74.3,67.4,30.18,ESE,105,1.0,1.0,79,0.00,,,0.00,Wunderground v.1.15,2013-01-11 23:35:00,
2013-01-11 18:40:00,74.2,67.6,30.18,East,86,1.0,1.0,80,0.00,,,0.00,Wunderground v.1.15,2013-01-11 23:40:00,
2013-01-11 18:45:00,74.1,67.5,30.18,East,93,0.0,1.0,80,0.00,,,0.00,Wunderground v.1.15,2013-01-11 23:45:00,
2013-01-11 18:51:00,73.9,67.0,30.18,East,79,1.0,2.0,80,0.00,,,0.00,weatherlink.com 1.10,2013-01-11 23:51:00,
2013-01-11 19:00:00,73.5,67.3,30.18,East,87,1.0,1.0,81,0.00,,,0.00,Wunderground v.1.15,2013-01-12 00:00:00,
2013-01-11 19:05:00,73.2,67.4,30.18,East,89,1.0,1.0,82,0.00,,,0.00,Wunderground v.1.15,2013-01-12 00:05:00,
2013-01-11 19:15:00,72.7,67.2,30.19,East,87,0.0,0.0,83,0.00,,,0.00,Wunderground v.1.15,2013-01-12 00:15:00,
2013-01-11 19:20:00,72.4,67.3,30.19,East,87,0.0,0.0,84,0.00,,,0.00,Wunderground v.1.15,2013-01-12 00:20:00,
2013-01-11 19:25:00,72.1,67.0,30.19,East,87,0.0,0.0,84,0.00,,,0.00,Wunderground v.1.15,2013-01-12 00:25:00,
2013-01-11 19:30:00,71.7,66.9,30.19,East,87,0.0,0.0,85,0.00,,,0.00,Wunderground v.1.15,2013-01-12 00:30:00,
2013-01-11 19:39:00,71.0,67.0,30.19,East,87,0.0,0.0,88,0.00,,,0.00,weatherlink.com 1.10,2013-01-12 00:39:00,
2013-01-11 19:45:00,70.7,67.3,30.20,East,87,0.0,0.0,89,0.00,,,0.00,Wunderground v.1.15,2013-01-12 00:45:00,
2013-01-11 19:55:00,70.1,66.4,30.20,East,87,0.0,0.0,88,0.00,,,0.00,Wunderground v.1.15,2013-01-12 00:55:00,
2013-01-11 20:00:00,69.6,66.2,30.20,East,88,0.0,0.0,89,0.00,,,0.00,Wunderground v.1.15,2013-01-12 01:00:00,
2013-01-11 20:05:00,69.3,65.9,30.20,East,88,0.0,0.0,89,0.00,,,0.00,Wunderground v.1.15,2013-01-12 01:05:00,
2013-01-11 20:10:00,69.0,65.9,30.20,East,88,0.0,0.0,90,0.00,,,0.00,Wunderground v.1.15,2013-01-12 01:10:00,
2013-01-11 20:20:00,68.5,65.4,30.20,East,88,0.0,0.0,90,0.00,,,0.00,Wunderground v.1.15,2013-01-12 01:20:00,
2013-01-11 20:25:00,68.2,65.2,30.20,East,88,0.0,0.0,90,0.00,,,0.00,Wunderground v.1.15,2013-01-12 01:25:00,
2013-01-11 20:30:00,68.0,65.6,30.20,East,88,0.0,0.0,92,0.00,,,0.00,Wunderground v.1.15,2013-01-12 01:30:00,
2013-01-11 20:35:00,67.9,65.5,30.20,East,88,0.0,0.0,92,0.00,,,0.00,Wunderground v.1.15,2013-01-12 01:35:00,
2013-01-11 20:45:00,67.9,65.5,30.20,East,88,0.0,0.0,92,0.00,,,0.00,Wunderground v.1.15,2013-01-12 01:45:00,
2013-01-11 20:50:00,68.3,65.9,30.20,East,88,0.0,0.0,92,0.00,,,0.00,Wunderground v.1.15,2013-01-12 01:50:00,
2013-01-11 21:00:00,69.0,65.9,30.20,East,89,0.0,0.0,90,0.00,,,0.00,Wunderground v.1.15,2013-01-12 02:00:00,
2013-01-11 21:05:00,69.0,65.6,30.20,East,89,0.0,0.0,89,0.00,,,0.00,Wunderground v.1.15,2013-01-12 02:05:00,
2013-01-11 21:10:00,69.0,65.6,30.20,East,89,0.0,1.0,89,0.00,,,0.00,Wunderground v.1.15,2013-01-12 02:10:00,
2013-01-11 21:15:00,69.0,65.6,30.21,East,91,0.0,1.0,89,0.00,,,0.00,Wunderground v.1.15,2013-01-12 02:15:00,
2013-01-11 21:25:00,68.9,65.5,30.20,East,89,0.0,0.0,89,0.00,,,0.00,Wunderground v.1.15,2013-01-12 02:25:00,
2013-01-11 21:30:00,68.8,65.4,30.21,East,91,0.0,0.0,89,0.00,,,0.00,Wunderground v.1.15,2013-01-12 02:30:00,
2013-01-11 21:35:00,68.7,65.6,30.20,East,89,0.0,0.0,90,0.00,,,0.00,Wunderground v.1.15,2013-01-12 02:35:00,
2013-01-11 21:45:00,68.5,65.4,30.20,East,89,0.0,0.0,90,0.00,,,0.00,Wunderground v.1.15,2013-01-12 02:45:00,
2013-01-11 21:50:00,68.3,65.3,30.20,East,89,0.0,0.0,90,0.00,,,0.00,Wunderground v.1.15,2013-01-12 02:50:00,
2013-01-11 21:55:00,68.1,65.4,30.20,East,89,0.0,0.0,91,0.00,,,0.00,Wunderground v.1.15,2013-01-12 02:55:00,
2013-01-11 22:05:00,68.0,65.3,30.21,East,89,0.0,1.0,91,0.00,,,0.00,Wunderground v.1.15,2013-01-12 03:05:00,
2013-01-11 22:10:00,68.1,65.4,30.21,East,89,0.0,0.0,91,0.00,,,0.00,Wunderground v.1.15,2013-01-12 03:10:00,
2013-01-11 22:15:00,68.1,65.4,30.20,East,88,0.0,0.0,91,0.00,,,0.00,Wunderground v.1.15,2013-01-12 03:15:00,
2013-01-11 22:20:00,68.1,65.4,30.20,East,85,0.0,0.0,91,0.00,,,0.00,Wunderground v.1.15,2013-01-12 03:20:00,
2013-01-11 22:30:00,67.9,65.5,30.21,East,84,0.0,0.0,92,0.00,,,0.00,Wunderground v.1.15,2013-01-12 03:30:00,
2013-01-11 22:35:00,67.8,65.4,30.21,East,85,0.0,0.0,92,0.00,,,0.00,Wunderground v.1.15,2013-01-12 03:35:00,
2013-01-11 22:45:00,67.7,65.6,30.21,East,85,0.0,0.0,93,0.00,,,0.00,Wunderground v.1.15,2013-01-12 03:45:00,
2013-01-11 22:50:00,67.8,65.4,30.21,East,86,0.0,0.0,92,0.00,,,0.00,Wunderground v.1.15,2013-01-12 03:50:00,
2013-01-11 22:55:00,67.8,65.4,30.21,East,93,1.0,1.0,92,0.00,,,0.00,Wunderground v.1.15,2013-01-12 03:55:00,
2013-01-11 23:00:00,67.7,65.3,30.21,East,93,1.0,1.0,92,0.00,,,0.00,Wunderground v.1.15,2013-01-12 04:00:00,
2013-01-11 23:10:00,67.5,65.4,30.21,East,91,0.0,0.0,93,0.00,,,0.00,Wunderground v.1.15,2013-01-12 04:10:00,
2013-01-11 23:15:00,67.5,65.4,30.21,East,91,0.0,0.0,93,0.00,,,0.00,Wunderground v.1.15,2013-01-12 04:15:00,
2013-01-11 23:25:00,67.3,65.2,30.21,East,88,0.0,0.0,93,0.00,,,0.00,Wunderground v.1.15,2013-01-12 04:25:00,
2013-01-11 23:30:00,67.3,65.2,30.21,East,96,1.0,1.0,93,0.00,,,0.00,Wunderground v.1.15,2013-01-12 04:30:00,
2013-01-11 23:35:00,67.3,65.2,30.21,East,96,0.0,1.0,93,0.00,,,0.00,Wunderground v.1.15,2013-01-12 04:35:00,
2013-01-11 23:40:00,67.1,65.3,30.21,East,95,0.0,0.0,94,0.00,,,0.00,Wunderground v.1.15,2013-01-12 04:40:00,
2013-01-11 23:45:00,67.1,65.0,30.21,East,94,0.0,1.0,94,0.00,,,0.00,weatherlink.com 1.10,2013-01-12 04:45:00,
2013-01-11 23:55:00,66.6,64.5,30.21,East,94,0.0,0.0,93,0.00,,,0.00,Wunderground v.1.15,2013-01-12 04:55:00,